Regional Weather Roundup
Issued by NWS

Home | Current Version | Previous Version | Graphics & Text | Print | Product List | Glossary On
Versions: 1 2 3 4 5 6 7 8 9 10 11 12 13 14 15 16 17 18 19 20 21 22 23 24 25 26 27 28 29 30 31 32 33 34 35 36 37 38 39 40 41 42 43 44 45 46 47 48 49 50
000
ASUS45 KABQ 010301
RWRNM
NEW MEXICO REGIONAL WEATHER ROUNDUP
NATIONAL WEATHER SERVICE ALBUQUERQUE NM
900 PM MDT FRI SEP 30 2016

NOTE: "FAIR" MEANS FEW OR NO CLOUDS BELOW 12,000 FEET AGL WITH NO
       SIGNIFICANT WEATHER OR OBSTRUCTIONS TO VISION.

      THIS PRODUCT IS RELEASED AS TWO VERSIONS.  ONE VERSION NEAR
      THE TOP OF THE HOUR CONTAINING PRELIMINARY DATA FROM ALBUQUERQUE
      AND OTHER STATIONS.  A FINAL VERSION WITH ADDITIONAL DATA IS
      ISSUED ABOUT 10 MINUTES AFTER THE HOUR.

NMZ501-503-504-510>518-010400-
NORTHWEST PLATEAU/NORTHCENTRAL MOUNTAINS

CITY           SKY/WX    TMP DP  RH WIND       PRES   REMARKS
FARMINGTON     FAIR      62  48  60 CALM      30.20R
LOS ALAMOS     MOCLDY    63  40  43 W16       30.27S
SANTA FE       FAIR      63  44  50 NW8       30.21R
TAOS           FAIR      61  30  31 CALM      30.27R
ANGEL FIRE     FAIR      48  33  57 CALM      30.33S

$$
NMZ402-403-502-505>509-010400-
WESTCENTRAL MOUNTAINS/SOUTHWEST MOUNTAINS

CITY           SKY/WX    TMP DP  RH WIND       PRES   REMARKS
GALLUP         FAIR      55  49  80 SW5       30.27R
SILVER CITY    FAIR      65  58  78 W7        30.23R

$$
NMZ407-409-411-412-010400-
SOUTHERN DESERTS

CITY           SKY/WX    TMP DP  RH WIND       PRES   REMARKS
DEMING         FAIR      69  59  70 S5        30.16R
LAS CRUCES     FAIR      66  61  82 SW3       30.19R
HOLLOMAN AFB   FAIR      69  59  71 SE7       30.14R
ALAMOGORDO     FAIR      64  59  82 SE7       30.16S
T OR C         FAIR      70  58  65 SW12      30.16R

$$
NMZ519>523-010400-
CENTRAL VALLEYS/CENTRAL HIGHLANDS

CITY           SKY/WX    TMP DP  RH WIND       PRES   REMARKS
ALBUQUERQUE    FAIR      72  43  35 NW6       30.19R
DOUBLE EAGLE   PTCLDY    61  45  55 VRB6      30.22R
CLINES CORNERS FAIR      53  40  61 W13       30.27R
BELEN          FAIR      67  54  61 S9        30.18R
SOCORRO        FAIR      65  58  78 NW6       30.17R

$$
NMZ524>526-539-540-010400-
SOUTHCENTRAL MOUNTAINS

CITY           SKY/WX    TMP DP  RH WIND       PRES   REMARKS
RUIDOSO        FAIR      55  50  82 CALM      30.30S

$$
NMZ527>531-010400-
NORTHEAST HIGHLANDS/NORTHEAST PLAINS

CITY           SKY/WX    TMP DP  RH WIND       PRES   REMARKS
LAS VEGAS      FAIR      58  39  49 N6        30.22R
RATON          CLOUDY    62  45  53 N10G18    30.21R
CLAYTON        FAIR      63  49  60 S10       30.13R

$$
NMZ532>537-010400-
EASTCENTRAL PLAINS

CITY           SKY/WX    TMP DP  RH WIND       PRES   REMARKS
TUCUMCARI      FAIR      67  51  56 S9        30.08R
CANNON AFB     FAIR      64  51  64 S8        30.13S
CLOVIS AIRPORT FAIR      63  48  59 S8        30.14R

$$
NMZ028-029-538-010400-
SOUTHEAST PLAINS

CITY           SKY/WX    TMP DP  RH WIND       PRES   REMARKS
ROSWELL        FAIR      67  51  56 S12       30.11R
ARTESIA        FAIR      64  55  72 S9        30.12S
CARLSBAD       FAIR      65  57  75 S7        30.11R
HOBBS          MOCLDY    63  55  77 SE7       30.15S


$$




USA.gov is the U.S. government's official web portal to all federal, state and local government web resources and services.